Вернуться в каталог

STARLINK-3357

АктивенСвязьVLEO
NORAD 51150·PAYLOAD·🇺🇸 United States

Запущен Jan 19, 2022 с Cape Canaveral Space Force Station

Loading…

Ближайшие Пролёты (ближайшие 24 часа)

TLE

СвежийSource: CelesTrak SupGP

Эпоха: Sep 14, 2026, 21:19 UTC

1 51150C 22005AY  26257.88868056 -.00034274  00000+0 -98068-3 0  2574
2 51150  53.1568 157.1996 0001245  91.9924 333.3979 15.35412730    15

Отслеживайте STARLINK-3357 в реальном времени с AllMySat

Download on the App Store